Salt Lake City, UT

1:50 AM MDT on July 26, 2016 (GMT -0600)
Salt Lake City International

Weather History for KSLC - July, 2014

Change the Weather History Date:

Saturday, July 5, 2014

  Actual Average Record
Temperature  
Mean Temperature 86 °F 77 °F  
Max Temperature 97 °F 91 °F 104 °F (1973)
Min Temperature 75 °F 63 °F 44 °F (1932)
Degree Days  
Heating Degree Days 0 0  
Month to date heating degree days 0 0  
Since 1 June heating degree days 39 46  
Since 1 July heating degree days 0 0  
Cooling Degree Days 21 12  
Month to date cooling degree days 87 56  
Year to date cooling degree days 329 293  
Since 1 June cooling degree days 267 243  
Growing Degree Days 36 (Base 50)    
Moisture  
Dew Point 42 °F    
Average Humidity 23    
Maximum Humidity 33    
Minimum Humidity 13    
Precipitation  
Precipitation 0.00 in 0.01 in 0.41 in (1982)
Month to date precipitation T 0.07  
Year to date precipitation 7.67 9.28  
Snow  
Snow 0.00 in 0.00 in - ()
Month to date snowfall 0.0 0.0  
Since 1 July snowfall 0.0 0.0  
Snow Depth 0.00 in    
Sea Level Pressure  
Sea Level Pressure 29.90 in    
Wind  
Wind Speed 13 mph (SSE)    
Max Wind Speed 24 mph    
Max Gust Speed 31 mph    
Visibility 10 miles    
Events      
T = Trace of Precipitation, MM = Missing Value Source: NWS Daily Summary

Daily Weather History Graph

Daily Weather History Graph

Search for Another Location

Airport or City:

Trip Planner

Search our weather history database for the weather conditions in past years. The results will help you decide how hot, cold, wet, or windy it might be!

Date:

Astronomy

Jul. 05, 2014 Rise Set
Actual Time 6:02 AM MDT 9:02 PM MDT
Civil Twilight 5:29 AM MDT 9:35 PM MDT
Nautical Twilight 4:47 AM MDT 10:17 PM MDT
Astronomical Twilight 3:58 AM MDT 11:06 PM MDT
Moon 2:03 PM MDT (7/5) 12:53 AM MDT (7/5)
Length of Visible Light 16h 05m
Length of Day
14h 59m
First Quarter, 53% of the Moon is Illuminated
Jul 5
First Quarter
Jul 12
Full
Jul 18
Last Quarter
Jul 26
New
Aug 3
First Quarter

Hourly Weather History & Observations

Time (MDT) Temp. Dew Point Humidity Pressure Visibility Wind Dir Wind Speed Gust Speed Precip Events Conditions
12:53 AM 82.0 °F 42.1 °F 24% 29.82 in 10.0 mi SSE 12.7 mph - N/A   Mostly Cloudy
1:53 AM 81.0 °F 43.0 °F 26% 29.83 in 10.0 mi SE 13.8 mph - N/A   Scattered Clouds
2:53 AM 79.0 °F 44.1 °F 29% 29.84 in 10.0 mi SSE 11.5 mph - N/A   Scattered Clouds
3:53 AM 81.0 °F 44.1 °F 27% 29.85 in 10.0 mi South 19.6 mph 23.0 mph N/A   Mostly Cloudy
4:53 AM 79.0 °F 44.1 °F 29% 29.87 in 10.0 mi South 13.8 mph - N/A   Scattered Clouds
5:53 AM 77.0 °F 44.1 °F 31% 29.88 in 10.0 mi SSE 13.8 mph - N/A   Partly Cloudy
6:53 AM 75.9 °F 44.1 °F 32% 29.92 in 10.0 mi SSE 10.4 mph - N/A   Partly Cloudy
7:53 AM 82.0 °F 44.1 °F 26% 29.93 in 10.0 mi SSE 15.0 mph 24.2 mph N/A   Partly Cloudy
8:53 AM 84.0 °F 45.0 °F 25% 29.95 in 10.0 mi South 16.1 mph 27.6 mph N/A   Partly Cloudy
9:53 AM 87.1 °F 45.0 °F 23% 29.96 in 10.0 mi South 21.9 mph 26.5 mph N/A   Partly Cloudy
10:53 AM 90.0 °F 45.0 °F 21% 29.96 in 10.0 mi SSW 16.1 mph - N/A   Partly Cloudy
11:53 AM 90.0 °F 44.1 °F 20% 29.96 in 10.0 mi South 10.4 mph - N/A   Partly Cloudy
12:53 PM 91.9 °F 43.0 °F 18% 29.96 in 10.0 mi Variable 4.6 mph - N/A   Partly Cloudy
1:53 PM 95.0 °F 42.1 °F 16% 29.94 in 10.0 mi WNW 9.2 mph - N/A   Partly Cloudy
2:53 PM 95.0 °F 37.0 °F 13% 29.93 in 10.0 mi Variable 4.6 mph - N/A   Partly Cloudy
3:53 PM 96.1 °F 37.0 °F 13% 29.91 in 10.0 mi NNE 12.7 mph 17.3 mph N/A   Scattered Clouds
4:53 PM 96.1 °F 37.0 °F 13% 29.90 in 10.0 mi North 11.5 mph 19.6 mph N/A   Scattered Clouds
5:53 PM 95.0 °F 37.9 °F 14% 29.89 in 10.0 mi NNE 8.1 mph - N/A   Scattered Clouds
6:53 PM 95.0 °F 34.0 °F 12% 29.88 in 10.0 mi North 8.1 mph - N/A   Scattered Clouds
7:53 PM 93.0 °F 37.9 °F 15% 29.87 in 10.0 mi North 6.9 mph - N/A   Partly Cloudy
8:53 PM 89.1 °F 39.0 °F 17% 29.88 in 10.0 mi North 4.6 mph - N/A   Partly Cloudy
9:53 PM 82.0 °F 46.0 °F 28% 29.89 in 10.0 mi SSE 6.9 mph - N/A   Partly Cloudy
10:53 PM 81.0 °F 43.0 °F 26% 29.88 in 10.0 mi SSE 8.1 mph - N/A   Partly Cloudy
11:53 PM 80.1 °F 42.1 °F 26% 29.90 in 10.0 mi Calm Calm - N/A   Clear